Back to catalog

STARLINK-11430

AliveCommunicationsVLEO
NORAD 62916·PAYLOAD·🇺🇸 United States

Launched Feb 8, 2025 from Cape Canaveral Space Force Station

Loading…

Next Passes (next 24 hours)

TLE

FreshSource: CelesTrak SupGP

Epoch: Sep 14, 2026, 21:31 UTC

1 62916C 25027K   26257.89701389  .00111550  00000+0  86535-3 0  2576
2 62916  43.0007 287.5876 0001739 249.9289 158.7316 15.70812076    15

Track STARLINK-11430 in real time with AllMySat

Download on the App Store